Location: Launay
(47.2429°N, 1.5727°E)
Time: 22:14:19
(UTC+00:00)

Okean 1 - Pass Details

Date: 19 May 2025
Orbit: 477 x 499 km, 82.5° (Epoch: 12 June)

Event Time Altitude Azimuth Distance (km) Brightness Sun altitude
Exits shadow 21:42:45 39° 165° (SSE) 746 3.5 -16.9°
Maximum altitude 21:43:56 67° 97° (E) 536 3.0 -17.0°
Drops below altitude 10° 21:47:35 10° 14° (NNE) 1,683 6.4 -17.3°
Sets 21:49:42 0° 12° (NNE) 2,565 7.5 -17.5°
